Regional Weather Roundup
Issued by NWS Cleveland, OH

Home | Current Version | Previous Version | Text Only | Print | Product List | Glossary On
Versions: 1 2 3 4 5 6 7 8 9 10 11 12 13 14 15 16 17 18 19 20 21 22 23 24 25 26 27 28 29 30 31 32 33 34 35 36 37 38 39 40 41 42 43 44 45 46 47 48 49 50
000
ASUS41 KCLE 292012
RWRCLE
OHIO REGIONAL WEATHER ROUNDUP
NATIONAL WEATHER SERVICE WILMINGTON, OH
400 PM EDT FRI APR 29 2016

NOTE: "FAIR" INDICATES FEW OR NO CLOUDS BELOW 12,000 FEET WITH NO
SIGNIFICANT WEATHER AND/OR OBSTRUCTIONS TO VISIBILITY.

OHZ001>008-015>018-024>027-034-035-043-044-292100-
   NORTHWEST OHIO

CITY           SKY/WX    TMP DP  RH WIND       PRES   REMARKS
DEFIANCE       CLOUDY    57  41  55 VRB3      30.07
FINDLAY        CLOUDY    55  41  59 VRB3      30.05
TOLEDO EXPRESS CLOUDY    55  40  56 NE12      30.05
TOLEDO EXEC    FAIR      52  40  63 NE15      30.08
LIMA           CLOUDY    52  46  80 CALM      30.05
$$

OHZ009>014-019>023-028>033-038-089-292100-
   NORTHEAST OHIO

CITY           SKY/WX    TMP DP  RH WIND       PRES   REMARKS
CLE-HOPKINS    LGT RAIN  44  42  93 N10       30.10  FOG
CLE-LAKEFRONT  LGT RAIN  44  41  89 NE14      30.08
CUY CO. ARPT   CLOUDY    46  43  87 NE9       30.07
LORAIN-ELYRIA  CLOUDY    43  39  86 N9        30.08
ASHTABULA      LGT RAIN  41  39  93 NE8       30.07
AKRON-CANTON   CLOUDY    49  44  83 NW13      30.03
WOOSTER        CLOUDY    48  44  86 N12       30.05
MANSFIELD      CLOUDY    47  43  86 N10       30.05
YOUNGSTOWN     LGT RAIN  49  46  90 NW12      30.02  VSB 1
$$

OHZ042-051>053-060>062-070>072-077>081-292100-
  SOUTHWEST OHIO

CITY           SKY/WX    TMP DP  RH WIND       PRES   REMARKS
CINC-COVINGTON CLOUDY    67  48  50 NW10      30.02
CINC-LUNKEN    FAIR      68  51  54 NW7       30.03
HAMILTON       PTSUNNY   68  49  50 W5        30.04
DAYTON         CLOUDY    59  50  72 N12       30.06
WRIGHT-PAT AFB CLOUDY    60  50  70 N6        30.05
DAYTON GENERAL FAIR      63  46  54 NW12      30.04
WILMINGTON     CLOUDY    61  51  70 N12       30.04
$$

OHZ036-037-039>041-045>050-054>059-063>069-073>076-082>088-292100-
  CENTRAL AND SOUTHEAST OHIO

CITY           SKY/WX    TMP DP  RH WIND       PRES   REMARKS
COLUMBUS       CLOUDY    59  48  67 N9        30.02
OSU AIRPORT    CLOUDY    58  48  69 N13       30.03
BOLTON FIELD   CLOUDY    57  48  72 NW7       30.04
RICKENBACK AFB CLOUDY    59  49  68 N6        30.02
NEWARK         CLOUDY    61  48  62 NW12      30.02
MARION         CLOUDY    51  45  79 N12       30.06
LANCASTER      CLOUDY    60  50  69 VRB7      30.03
ZANESVILLE     CLOUDY    60  49  66 NW8       30.01
NEW PHILLY     CLOUDY    55  49  80 NW8       30.02
$$




USA.gov is the U.S. government's official web portal to all federal, state and local government web resources and services.